Tracking 19831 objects as of 23-Aug-2019
HD Live streaming from Space Station
objects crossing your sky now

MOLNIYA 3-8

Track MOLNIYA 3-8 now!
MOLNIYA 3-8 is classified as:


NORAD ID: 10455
Int'l Code: 1977-105A
Perigee: 1,129.3 km
Apogee: 39,268.1 km
Inclination: 62.1 °
Period: 718.4 minutes
Semi major axis: 26569 km
RCS: 13.5006 m2 (large)
Launch date: October 28, 1977
Source: Commonwealth of Independent States (former USSR) (CIS)
Launch site: PLESETSK MISSILE AND SPACE COMPLEX (PKMTR)
aabbcc
Your satellite tracking list
Your tracking list is empty




NASA's NSSDC Master Catalog

Two Line Element Set (TLE):
1 10455U 77105A   19234.86939041  .00001211  00000-0  76590-2 0  9998
2 10455  62.1362 152.8331 7177115 274.2341  14.2015  2.00457780306412
Source of the keplerian elements: AFSPC